EW7239 Weather Reports


Display with metric or nautical units.
time (UTC)temp
F
wind
direction
speed
MPH
gust
MPH
rain 1hr
in
rain 24hr
in
rain mn
in
humidity
%
barometer
mb
20260503235946 69 223 7.0 11.0 0.00 0.00 0.00 55 1012.1
20260503235445 69 215 7.0 14.0 0.00 0.00 0.00 54 1012.0
20260503234946 69 232 8.0 14.0 0.00 0.00 0.00 53 1012.0
20260503234447 70 220 6.0 10.0 0.00 0.00 0.00 53 1012.1
20260503234218 70 248 6.0 12.0 0.00 0.00 0.00 54 1012.2
20260503233445 69 233 6.0 14.0 0.00 0.00 0.00 57 1012.2
20260503232945 69 223 7.0 14.0 0.00 0.00 0.00 55 1012.2
20260503232446 69 225 7.0 13.0 0.00 0.00 0.00 55 1012.2
20260503231946 70 223 8.0 13.0 0.00 0.00 0.00 55 1012.5
20260503231446 71 223 7.0 14.0 0.00 0.00 0.00 54 1012.3
20260503230946 72 230 7.0 14.0 0.00 0.00 0.00 53 1012.3
20260503230446 71 265 7.0 15.0 0.00 0.00 0.00 57 1012.3
20260503230217 69 231 8.0 15.0 0.00 0.00 0.00 58 1012.6
20260503225710 69 234 8.0 13.0 0.00 0.00 0.00 59 1012.6
20260503224939 69 221 7.0 13.0 0.00 0.00 0.00 59 1012.7
20260503224441 69 217 7.0 13.0 0.00 0.00 0.00 60 1012.7
20260503223939 69 223 7.0 15.0 0.00 0.00 0.00 59 1012.8
20260503223440 69 248 8.0 15.0 0.00 0.00 0.00 59 1012.8
20260503222940 70 226 7.0 12.0 0.00 0.00 0.00 59 1012.9
20260503222440 70 223 6.0 11.0 0.00 0.00 0.00 60 1012.9
20260503221939 69 221 7.0 14.0 0.00 0.00 0.00 61 1012.9
20260503221439 69 219 7.0 14.0 0.00 0.00 0.00 60 1013.0
20260503220940 69 229 6.0 12.0 0.00 0.00 0.00 60 1013.0
20260503220438 69 223 7.0 14.0 0.00 0.00 0.00 61 1013.0
20260503215937 69 196 6.0 14.0 0.00 0.00 0.00 61 1013.1
20260503215438 69 226 6.0 10.0 0.00 0.00 0.00 60 1013.2
20260503214937 69 225 5.0 10.0 0.00 0.00 0.00 61 1013.3
20260503214438 69 237 6.0 12.0 0.00 0.00 0.00 63 1013.2
20260503213938 69 249 6.0 12.0 0.00 0.00 0.00 61 1013.3
20260503213438 70 227 5.0 11.0 0.00 0.00 0.00 60 1013.3
20260503212939 70 229 5.0 11.0 0.00 0.00 0.00 61 1013.4
20260503212437 69 237 4.0 10.0 0.00 0.00 0.00 61 1013.4
20260503211936 69 249 5.0 8.0 0.00 0.00 0.00 60 1013.4
20260503211436 70 252 5.0 9.0 0.00 0.00 0.00 60 1013.4
20260503210935 70 225 5.0 11.0 0.00 0.00 0.00 60 1013.4
20260503210436 70 214 3.0 11.0 0.00 0.00 0.00 61 1013.4
20260503205935 70 230 2.0 7.0 0.00 0.00 0.00 64 1013.5
20260503204933 69 227 4.0 9.0 0.00 0.00 0.00 62 1013.6
20260503203934 69 240 3.0 8.0 0.00 0.00 0.00 65 1013.6
20260503203702 69 237 3.0 7.0 0.00 0.00 0.00 67 1013.7
20260503202929 68 238 3.0 7.0 0.00 0.00 0.00 67 1013.8
20260503202430 67 256 3.0 8.0 0.00 0.00 0.00 70 1013.8
20260503201928 66 257 4.0 8.0 0.00 0.00 0.00 71 1013.9
20260503201426 65 207 4.0 8.0 0.00 0.00 0.00 72 1014.0
20260503200926 65 228 5.0 9.0 0.00 0.00 0.00 74 1014.1
20260503200421 64 225 5.0 9.0 0.00 0.00 0.00 74 1014.1
20260503195917 64 232 5.0 9.0 0.00 0.00 0.00 75 1014.2
20260503195417 63 244 4.0 8.0 0.00 0.00 0.00 78 1014.3
20260503194912 62 234 5.0 9.0 0.00 0.00 0.00 78 1014.3
20260503194413 62 231 6.0 9.0 0.00 0.00 0.00 79 1014.4
20260503193911 61 223 5.0 9.0 0.00 0.00 0.00 79 1014.5
20260503193412 62 237 4.0 9.0 0.00 0.00 0.00 80 1014.6
20260503193142 61 257 6.0 10.0 0.00 0.00 0.00 80 1014.6
20260503192409 61 222 7.0 10.0 0.00 0.00 0.00 80 1014.6
20260503191907 62 225 6.0 11.0 0.00 0.00 0.00 79 1014.7
20260503191639 62 210 5.0 11.0 0.00 0.00 0.00 79 1014.7
20260503190908 62 193 5.0 10.0 0.00 0.00 0.00 79 1014.8
20260503190408 62 223 5.0 9.0 0.00 0.00 0.00 79 1014.8
20260503190138 62 234 6.0 9.0 0.00 0.00 0.00 80 1014.8
20260503185407 62 226 5.0 9.0 0.00 0.00 0.00 80 1014.8
20260503184909 62 230 5.0 9.0 0.00 0.00 0.00 81 1014.8
20260503184638 62 238 4.0 11.0 0.00 0.00 0.00 82 1014.8
20260503183909 62 221 5.0 11.0 0.00 0.00 0.00 82 1014.9
20260503183407 61 219 5.0 10.0 0.00 0.00 0.00 83 1014.8
20260503182908 61 221 5.0 10.0 0.00 0.00 0.00 84 1014.9
20260503182404 61 221 5.0 10.0 0.00 0.00 0.00 84 1014.9
20260503181903 61 223 4.0 9.0 0.00 0.00 0.00 85 1014.9
20260503180859 60 223 6.0 10.0 0.00 0.00 0.00 85 1014.9
20260503180359 60 224 6.0 10.0 0.00 0.00 0.00 85 1014.9
20260503175900 60 223 6.0 10.0 0.00 0.00 0.00 85 1014.9
20260503175355 60 224 6.0 10.0 0.00 0.00 0.00 85 1014.8
20260503174851 60 224 6.0 10.0 0.00 0.00 0.00 85 1014.8
20260503174352 60 225 6.0 10.0 0.00 0.00 0.00 84 1014.7
20260503173852 60 211 5.0 9.0 0.00 0.00 0.00 84 1014.7
20260503173351 60 213 5.0 9.0 0.00 0.00 0.00 84 1014.7
20260503172851 60 215 5.0 9.0 0.00 0.00 0.00 83 1014.7
20260503172351 60 226 4.0 7.0 0.00 0.00 0.00 82 1014.6
20260503171853 60 232 4.0 6.0 0.00 0.00 0.00 81 1014.6
20260503171624 60 233 4.0 6.0 0.00 0.00 0.00 81 1014.5
20260503170852 60 234 4.0 6.0 0.00 0.00 0.00 80 1014.5
20260503170349 60 234 4.0 7.0 0.00 0.00 0.00 80 1014.5
20260503170120 60 235 3.0 7.0 0.00 0.00 0.00 80 1014.5
20260503150839 58 257 2.0 4.0 0.00 0.00 0.00 81 1014.1
20260503150341 58 257 3.0 4.0 0.00 0.00 0.00 81 1014.1
20260503131319 58 257 2.0 4.0 0.00 0.00 0.00 86 1013.4
20260503130816 58 257 2.0 4.0 0.00 0.00 0.00 86 1013.4
20260503130316 58 257 2.0 4.0 0.00 0.00 0.00 86 1013.4
20260503110758 58 257 3.0 7.0 0.00 0.00 0.00 86 1012.8
20260503110257 58 257 3.0 7.0 0.00 0.00 0.00 86 1012.7
20260503100250 58 257 4.0 7.0 0.00 0.00 0.00 85 1013.1
20260503090238 58 238 2.0 7.0 0.00 0.00 0.00 85 1013.2
20260503081227 58 238 1.0 4.0 0.00 0.00 0.00 83 1013.4
20260503080727 59 238 2.0 4.0 0.00 0.00 0.00 83 1013.4
20260503080225 59 238 2.0 5.0 0.00 0.00 0.00 83 1013.4
20260503072723 59 238 2.0 4.0 0.00 0.00 0.00 82 1013.2
20260503072222 59 238 2.0 5.0 0.00 0.00 0.00 82 1013.2
20260503071719 59 238 2.0 5.0 0.00 0.00 0.00 81 1013.1
20260503071221 59 238 2.0 4.0 0.00 0.00 0.00 81 1013.0
20260503070715 59 238 3.0 5.0 0.00 0.00 0.00 81 1013.1
20260503070212 59 238 3.0 6.0 0.00 0.00 0.00 80 1013.0
20260503060158 61 239 2.0 5.0 0.00 0.00 0.00 77 1012.9
20260503054655 61 238 3.0 8.0 0.00 0.00 0.00 77 1013.0
20260503054422 61 239 4.0 8.0 0.00 0.00 0.00 77 1013.1
20260503053650 62 232 4.0 8.0 0.00 0.00 0.00 77 1013.1
20260503053151 62 227 5.0 8.0 0.00 0.00 0.00 77 1013.1
20260503052920 62 231 5.0 8.0 0.00 0.00 0.00 76 1013.1
20260503052151 62 236 4.0 8.0 0.00 0.00 0.00 76 1013.1
20260503051650 62 235 5.0 8.0 0.00 0.00 0.00 76 1012.9
20260503051151 62 227 4.0 8.0 0.00 0.00 0.00 76 1012.9
20260503050650 62 228 4.0 8.0 0.00 0.00 0.00 76 1012.9
20260503050151 62 228 5.0 8.0 0.00 0.00 0.00 76 1012.9
20260503045645 63 228 4.0 7.0 0.00 0.00 0.00 75 1012.8
20260503045142 63 229 4.0 8.0 0.00 0.00 0.00 75 1012.7
20260503044641 63 228 4.0 8.0 0.00 0.00 0.00 75 1012.8
20260503044411 63 229 4.0 8.0 0.00 0.00 0.00 75 1012.7
20260503043640 63 230 5.0 9.0 0.00 0.00 0.00 75 1012.7
20260503043141 63 233 4.0 9.0 0.00 0.00 0.00 74 1012.6
20260503042638 64 229 4.0 6.0 0.00 0.00 0.00 74 1012.5
20260503042138 64 227 5.0 9.0 0.00 0.00 0.00 74 1012.3
20260503041638 64 227 5.0 9.0 0.00 0.00 0.00 73 1012.2
20260503041139 64 227 5.0 9.0 0.00 0.00 0.00 73 1012.1
20260503040632 64 225 6.0 10.0 0.00 0.00 0.00 73 1012.0
20260503040133 64 225 5.0 10.0 0.00 0.00 0.00 72 1012.0
20260503035633 65 227 5.0 8.0 0.00 0.00 0.00 72 1011.9
20260503035132 65 223 4.0 8.0 0.00 0.00 0.00 71 1011.8
20260503034633 65 225 4.0 7.0 0.00 0.00 0.00 71 1011.7
20260503034405 66 225 4.0 10.0 0.00 0.00 0.00 70 1011.6
20260503033631 66 225 4.0 10.0 0.00 0.00 0.00 70 1011.5
20260503033129 66 232 3.0 7.0 0.00 0.00 0.00 69 1011.4
20260503032626 67 224 5.0 9.0 0.00 0.00 0.00 69 1011.3
20260503032126 67 223 5.0 9.0 0.00 0.00 0.00 68 1011.2
20260503031625 67 222 4.0 11.0 0.00 0.00 0.00 68 1011.2
20260503031124 67 222 5.0 11.0 0.00 0.00 0.00 67 1011.1
20260503030624 68 223 6.0 11.0 0.00 0.00 0.00 67 1011.0
20260503030120 68 229 6.0 11.0 0.00 0.00 0.00 66 1010.9
20260503025621 69 232 5.0 10.0 0.00 0.00 0.00 65 1010.8
20260503025120 69 239 5.0 10.0 0.00 0.00 0.00 65 1010.6
20260503024622 69 221 6.0 10.0 0.00 0.00 0.00 64 1010.5
20260503024121 70 223 6.0 11.0 0.00 0.00 0.00 64 1010.4
20260503023618 70 236 6.0 11.0 0.00 0.00 0.00 63 1010.3
20260503023118 71 223 6.0 11.0 0.00 0.00 0.00 63 1010.1
20260503022619 71 221 6.0 11.0 0.00 0.00 0.00 62 1010.1
20260503022117 72 221 5.0 9.0 0.00 0.00 0.00 61 1010.0
20260503021617 72 221 5.0 8.0 0.00 0.00 0.00 60 1010.1
20260503021116 73 221 5.0 8.0 0.00 0.00 0.00 59 1010.0
20260503020616 73 221 5.0 9.0 0.00 0.00 0.00 59 1010.0
20260503020116 74 223 6.0 10.0 0.00 0.00 0.00 58 1010.1
20260503015617 74 222 5.0 10.0 0.00 0.00 0.00 58 1010.1
20260503015345 74 220 5.0 10.0 0.00 0.00 0.00 57 1010.0
20260503014614 74 232 5.0 10.0 0.00 0.00 0.00 57 1009.9
20260503014114 75 224 5.0 10.0 0.00 0.00 0.00 57 1009.9
20260503013615 75 227 6.0 13.0 0.00 0.00 0.00 57 1009.9
20260503013346 75 223 7.0 13.0 0.00 0.00 0.00 58 1010.0
20260503012613 75 225 7.0 13.0 0.00 0.00 0.00 57 1010.0
20260503012110 75 219 7.0 12.0 0.00 0.00 0.00 56 1010.0
20260503011611 75 224 8.0 14.0 0.00 0.00 0.00 56 1010.0
20260503011108 76 219 8.0 14.0 0.00 0.00 0.00 56 1009.9
20260503010609 76 229 8.0 13.0 0.00 0.00 0.00 55 1010.0
20260503010109 76 236 8.0 13.0 0.00 0.00 0.00 55 1009.9
20260503005605 76 223 8.0 16.0 0.00 0.00 0.00 55 1009.9
20260503005105 77 218 8.0 16.0 0.00 0.00 0.00 54 1009.9
20260503004606 77 219 9.0 15.0 0.00 0.00 0.00 54 1009.9
20260503004104 78 221 9.0 15.0 0.00 0.00 0.00 53 1009.9
20260503003102 79 203 8.0 15.0 0.00 0.00 0.00 53 1009.9
20260503002603 79 219 8.0 15.0 0.00 0.00 0.00 52 1010.0
20260503002103 79 223 8.0 14.0 0.00 0.00 0.00 51 1009.9
20260503001603 80 224 7.0 12.0 0.00 0.00 0.00 51 1009.8
20260503001102 80 213 8.0 12.0 0.00 0.00 0.00 52 1009.9
20260503000604 80 219 8.0 12.0 0.00 0.00 0.00 51 1009.8